Change the Weather History Date:

Wednesday, February 27, 2013

  Actual Average Record
Temperature  
Mean Temperature 42 °F -  
Max Temperature 48 °F 40 °F 73 °F (1997)
Min Temperature 37 °F 22 °F 0 °F (1934)
Degree Days  
Heating Degree Days 22    
Moisture  
Dew Point 38 °F    
Average Humidity 85    
Maximum Humidity 93    
Minimum Humidity 71    
Precipitation  
Precipitation 0.00 in - - ()
Sea Level Pressure  
Sea Level Pressure 29.68 in    
Wind  
Wind Speed 10 mph (NE)    
Max Wind Speed 14 mph    
Max Gust Speed 29 mph    
Visibility 6 miles    
Events Rain    
Averages and records for this station are not official NWS values.
T = Trace of Precipitation, MM = Missing Value Source: NWS Daily Summary

Daily Weather History Graph

Daily Weather History Graph

Search for Another Location

Airport or City:

Trip Planner

Search our weather history database for the weather conditions in past years. The results will help you decide how hot, cold, wet, or windy it might be!

Date:

Astronomy

Feb. 27, 2013 Rise Set
Actual Time 6:34 AM EST 5:46 PM EST
Civil Twilight 6:06 AM EST 6:14 PM EST
Nautical Twilight 5:35 AM EST 6:46 PM EST
Astronomical Twilight 5:03 AM EST 7:17 PM EST
Moon 8:06 PM EST (2/27) 7:07 AM EST (2/27)
Length of Visible Light 12h 07m
Length of Day
11h 12m
Waning Gibbous, 96% of the Moon is Illuminated
Feb 27
Waning Gibbous
Mar 4
Last Quarter
Mar 11
New
Mar 19
First Quarter
Mar 27
Full

Hourly Weather History & Observations

Time (EST) Temp. Windchill Dew Point Humidity Pressure Visibility Wind Dir Wind Speed Gust Speed Precip Events Conditions
12:15 AM 37.4 °F 30.3 °F 33.8 °F 87% 29.88 in 3.0 mi ENE 10.4 mph 19.6 mph N/A Rain Heavy Rain
12:35 AM 37.4 °F 30.3 °F 35.6 °F 93% 29.87 in 4.0 mi ENE 10.4 mph 19.6 mph N/A Rain Rain
12:55 AM 39.2 °F 32.5 °F 35.6 °F 87% 29.88 in 4.0 mi NE 10.4 mph - N/A Rain Rain
1:15 AM 39.2 °F 32.5 °F 35.6 °F 87% 29.86 in 5.0 mi NE 10.4 mph 19.6 mph N/A Rain Rain
1:35 AM 39.2 °F 31.6 °F 35.6 °F 87% 29.84 in 4.0 mi NE 12.7 mph 19.6 mph N/A Rain Rain
1:55 AM 39.2 °F 31.6 °F 35.6 °F 87% 29.83 in 5.0 mi NE 12.7 mph 18.4 mph N/A Rain Rain
2:15 AM 39.2 °F 31.6 °F 35.6 °F 87% 29.81 in 5.0 mi NE 12.7 mph 21.9 mph N/A Rain Light Rain
2:35 AM 39.2 °F 32.0 °F 35.6 °F 87% 29.79 in 5.0 mi ENE 11.5 mph 21.9 mph N/A Rain Light Rain
2:55 AM 39.2 °F 33.0 °F 35.6 °F 87% 29.78 in 4.0 mi NE 9.2 mph 21.9 mph N/A Rain Rain
3:15 AM 39.2 °F 32.5 °F 35.6 °F 87% 29.76 in 4.0 mi NE 10.4 mph 19.6 mph N/A Rain Light Rain
3:35 AM 39.2 °F 32.0 °F 37.4 °F 93% 29.75 in 3.0 mi NE 11.5 mph 21.9 mph N/A Rain Light Rain
3:55 AM 39.2 °F 31.2 °F 37.4 °F 93% 29.73 in 3.0 mi NE 13.8 mph 17.3 mph N/A Rain Light Rain
4:15 AM 39.2 °F 31.2 °F 37.4 °F 93% 29.73 in 5.0 mi NE 13.8 mph 18.4 mph N/A Rain Rain
4:35 AM 41.0 °F 34.7 °F 37.4 °F 87% 29.72 in 3.0 mi NE 10.4 mph 21.9 mph N/A Rain Light Rain
4:55 AM 41.0 °F 33.5 °F 37.4 °F 87% 29.70 in 4.0 mi NE 13.8 mph 18.4 mph N/A Rain Light Rain
5:15 AM 41.0 °F 33.9 °F 37.4 °F 87% 29.68 in 7.0 mi NE 12.7 mph 20.7 mph N/A Rain Rain
5:35 AM 41.0 °F 34.7 °F 39.2 °F 93% 29.67 in 7.0 mi NE 10.4 mph 17.3 mph N/A   Drizzle
6:45 AM 41.0 °F 35.2 °F 39.2 °F 93% 29.65 in 2.2 mi NE 9.2 mph 17.3 mph N/A Rain Light Rain
7:45 AM 42.8 °F 36.6 °F 41.0 °F 93% 29.61 in 2.2 mi East 11.5 mph 27.6 mph N/A Rain Light Rain
8:45 AM 44.6 °F 38.1 °F 41.0 °F 87% 29.59 in 2.5 mi East 13.8 mph 28.8 mph N/A Rain Light Rain
9:45 AM 44.6 °F 38.8 °F 42.8 °F 93% 29.57 in 2.5 mi East 11.5 mph 23.0 mph N/A Rain Light Rain
10:45 AM 44.6 °F 38.1 °F 42.8 °F 93% 29.55 in 2.5 mi East 13.8 mph 24.2 mph N/A Rain Light Rain
11:45 AM 44.6 °F 41.4 °F 42.8 °F 93% 29.54 in 2.5 mi East 5.8 mph 11.5 mph N/A   Overcast
12:45 PM 44.6 °F 42.2 °F 42.8 °F 93% 29.52 in 2.5 mi ENE 4.6 mph - N/A   Overcast
1:45 PM 44.6 °F 43.1 °F 42.8 °F 93% 29.53 in 2.5 mi North 3.5 mph - N/A   Overcast
2:45 PM 48.2 °F - 44.6 °F 87% 29.53 in 10.0 mi NNW 3.5 mph - N/A   Mostly Cloudy
3:45 PM 48.2 °F - 41.0 °F 76% 29.55 in 10.0 mi West 11.5 mph 19.6 mph N/A   Overcast
4:45 PM 46.4 °F 41.1 °F 37.4 °F 71% 29.58 in 10.0 mi West 11.5 mph 20.7 mph N/A   Overcast
5:45 PM 44.6 °F 38.8 °F 35.6 °F 71% 29.61 in 10.0 mi West 11.5 mph 19.6 mph N/A   Scattered Clouds
6:45 PM 44.6 °F 40.7 °F 35.6 °F 71% 29.64 in 10.0 mi West 6.9 mph - N/A   Mostly Cloudy
7:45 PM 44.6 °F 41.4 °F 35.6 °F 71% 29.64 in 10.0 mi West 5.8 mph - N/A   Mostly Cloudy
8:45 PM 44.6 °F 40.7 °F 35.6 °F 71% 29.65 in 10.0 mi NW 6.9 mph - N/A   Mostly Cloudy
9:45 PM 41.0 °F - 33.8 °F 76% 29.66 in 10.0 mi Calm Calm - N/A   Mostly Cloudy
9:55 PM 42.8 °F - 35.6 °F 76% 29.65 in 10.0 mi Calm Calm - N/A   Mostly Cloudy
10:15 PM 41.0 °F - 35.6 °F 81% 29.65 in 10.0 mi Calm Calm - N/A   Overcast
10:35 PM 41.0 °F - 35.6 °F 81% 29.64 in 10.0 mi Calm Calm - N/A   Overcast
10:55 PM 42.8 °F - 35.6 °F 76% 29.64 in 10.0 mi Calm Calm - N/A   Overcast
11:15 PM 42.8 °F 41.1 °F 35.6 °F 76% 29.64 in 10.0 mi South 3.5 mph - N/A   Overcast
11:35 PM 42.8 °F - 35.6 °F 76% 29.63 in 10.0 mi Calm Calm - N/A   Overcast
11:55 PM 42.8 °F 41.1 °F 35.6 °F 76% 29.63 in 10.0 mi SSW 3.5 mph - N/A   Overcast